Location: Albuquerque Publishing Company Journal-Tribune Library
(35.0845°N, 106.6511°W)
Time: 04:23:06
(UTC+00:00)

Daily predictions for brighter satellites

Satellite Brightness Start Highest point End
(mag) Time Altitude Azimuth Time Altitude Azimuth Time Altitude Azimuth
USA 238 4.5 00:40:47 10° SSE 00:46:23 29° ESE 00:52:04 10° NE
Cosmos 1934 Rocket 4.5 00:43:17 10° N 00:49:13 40° ENE 00:55:08 10° SSE
Cosmos 1503 Rocket 3.9 00:47:38 10° NNW 00:52:49 77° ENE 00:57:59 10° SSE
H-2A R/B 3.0 00:51:15 10° S 00:55:06 79° WSW 00:59:01 10° NNW
Meteor 1-21 Rocket 4.3 00:49:57 10° N 00:55:49 85° E 01:01:32 10° S
YAOGAN 1 3.7 00:52:52 10° ESE 00:56:18 24° ENE 00:59:45 10° NNE
YAOGAN 6 3.5 00:55:21 10° SE 00:58:29 27° ENE 01:01:37 10° NNE
SKYMED 2 3.6 00:54:43 10° NNE 00:59:01 58° E 01:03:16 10° S
SL-4 R/B 1.7 01:00:18 10° NW 01:04:09 75° NE 01:07:43 10° SE
Cosmos 1726 Rocket 4.0 01:02:20 10° SSW 01:06:43 66° W 01:11:04 10° N
Cosmos 2228 3.7 01:02:57 10° SSW 01:07:17 60° W 01:11:36 10° N
Cosmos 1356 3.3 01:05:00 10° S 01:08:24 76° E 01:11:51 10° NNE
OAO 2 Rocket 3.5 01:04:23 10° W 01:09:39 84° S 01:14:34 12° E
BREEZE-M DEB (TANK) 3.7 00:58:33 10° NW 01:09:52 78° NE 01:13:01 10° ESE
NOSS 3-2 (A) 3.9 01:06:21 10° S 01:11:19 34° ESE 01:16:42 10° NE
Cosmos 1703 3.8 01:07:42 10° NNE 01:11:21 36° E 01:14:58 10° SSE
Cosmos 1833 Rocket 3.9 01:08:36 10° N 01:12:43 20° ENE 01:16:02 13° E
Cosmos 921 Rocket 4.4 01:12:17 10° SW 01:16:35 44° WNW 01:20:52 10° N
Meteor 2-10 3.9 01:13:59 10° S 01:19:06 88° E 01:24:09 10° N
CZ-3 Stage 3 2.2 01:15:34 10° WSW 01:22:21 43° S 01:24:10 18° ESE
Cosmos 2058 Rocket 3.5 01:21:11 10° SSW 01:25:30 63° W 01:29:50 10° N
Envisat 3.2 01:23:26 10° S 01:28:29 78° WSW 01:33:34 10° NNW
ASTEX 1 3.8 01:27:34 10° N 01:32:30 68° W 01:37:26 10° SSW
Cosmos 1908 3.3 01:29:41 10° S 01:33:35 82° W 01:37:29 10° N
CSL-04 Debris 4.1 01:29:17 10° SSE 01:34:39 69° ENE 01:40:06 10° N
Okean-O 4.4 01:30:38 10° SSW 01:34:41 35° W 01:38:47 10° NNW
NOSS 3-2 (C) 3.9 01:30:20 10° S 01:35:15 32° ESE 01:38:44 18° ENE
Meteosat 1 Rocket2 4.1 01:34:20 10° SW 01:37:21 24° S 01:38:47 19° SE
Cosmos 2082 Rocket 3.3 01:33:17 10° N 01:37:42 23° ENE 01:38:41 22° ENE
Abrixas rocket 4.2 01:35:41 10° WNW 01:38:05 20° NNW 01:40:03 12° NNE
Unknown 3.3 01:36:11 10° NNW 01:38:32 33° NNE 01:38:32 33° NNE
USA 116 3.6 01:36:21 10° N 01:39:34 67° WNW 01:43:04 10° SSW
Cosmos 482 Debris 4.1 01:36:30 10° NW 01:40:45 48° NE 01:41:28 39° ENE
COSMOS 2406 3.2 01:40:45 10° NNW 01:46:33 87° ENE 01:52:16 10° SSE
COSMO-SKYMED 1 4.2 01:43:01 10° N 01:47:00 36° WNW 01:50:59 10° SW
BREEZE-M DEB (TANK) 4.4 01:45:33 10° S 01:49:03 36° ESE 01:53:36 21° ENE
DMSP B5D1-3 4.5 01:48:53 10° NNE 01:54:02 89° WNW 01:59:11 10° SSW
Lacrosse 5 rocket 3.0 01:51:05 10° WNW 01:54:32 32° SW 01:58:10 10° S
Cosmos 1939 Rocket 2.9 01:53:07 28° SE 01:54:58 54° ENE 01:58:54 10° N
Cosmos 1242 Rocket 4.4 01:53:43 10° NNW 01:57:04 34° W 02:00:23 10° SSW
Lacrosse 5 3.4 01:54:03 10° NNW 01:57:44 20° NE 01:57:47 20° NE
OAO 3 Rocket 3.2 01:53:01 10° W 01:57:57 85° S 01:59:40 42° ESE
ADEOS Rocket 4.0 01:51:51 10° NE 01:58:20 31° E 02:04:22 10° SSE
MINOTAUR IV R/B 4.5 02:00:56 10° NNW 02:05:28 68° ENE 02:06:43 46° SE
Cosmos 1461 4.0 02:04:00 10° N 02:06:37 29° NNE 02:06:37 29° NNE
ATLAS 3B R/B 2.9 02:03:14 10° S 02:09:34 43° ESE 02:10:43 40° E
Ariane Rocket 2.9 02:07:14 18° SSE 02:11:05 71° ENE 02:16:11 10° N
Cosmos 2278 Rocket 3.5 02:07:32 10° SW 02:12:49 40° WNW 02:18:10 10° N
Cosmos 2297 3.7 02:07:48 10° S 02:13:21 58° ESE 02:15:12 40° NE
Cosmos 839 Rocket 4.4 02:07:07 10° NNW 02:13:28 72° WSW 02:21:05 10° SSE
MOS 1 4.3 02:16:41 51° E 02:17:09 52° ENE 02:22:37 10° N
CENTAUR R/B 2.4 02:14:45 10° S 02:20:12 52° ESE 02:20:20 52° ESE
CZ-4 R/B 3.8 02:17:19 10° SSW 02:20:40 24° W 02:24:05 10° NW
Cosmos 1459 Rocket 4.1 02:15:00 10° N 02:21:04 52° E 02:21:24 51° E
CZ-2D R/B 3.9 02:18:50 19° S 02:21:23 55° W 02:25:11 10° NNW
IRS-1A Rocket 4.0 02:19:40 30° SSE 02:22:30 78° ENE 02:28:01 10° N
Cosmos 1812 Rocket 4.3 02:18:42 10° SSW 02:22:59 52° W 02:27:20 10° N
Cosmos 1300 3.6 02:28:28 10° SSW 02:32:08 47° W 02:32:08 47° W
Cosmos 1076 Rocket 4.4 02:28:21 10° N 02:31:13 41° NNW 02:31:13 41° NNW
USA 234 3.8 02:47:01 42° S 02:47:01 42° S 02:51:38 10° SSW
Cosmos 2173 Rocket 3.8 02:39:46 10° N 02:46:00 84° ENE 02:46:00 84° ENE
Cosmos 1802 Rocket 4.3 02:40:16 10° N 02:45:23 55° NNE 02:45:23 55° NNE
OAO 2 Rocket 4.4 02:49:18 10° W 02:53:32 40° SW 02:53:32 40° SW
H-2A R/B 4.1 02:58:54 18° N 02:58:54 18° N 03:00:11 10° N
Cosmos 1833 Rocket 3.4 02:51:29 10° NNW 02:56:53 50° WSW 02:57:49 45° SW
Cosmos 2100 Rocket 4.4 03:02:58 10° NNW 03:08:59 57° W 03:09:40 53° WSW
Cosmos 2082 Rocket 3.4 03:16:34 10° NW 03:20:35 38° WNW 03:20:35 38° WNW
Lacrosse 5 4.5 03:36:06 10° NW 03:36:59 15° NW 03:36:59 15° NW
ADEOS Rocket 4.2 03:36:44 10° N 03:43:53 46° WNW 03:50:32 10° SW
ATLAS 3B R/B 4.3 03:54:16 10° WSW 03:58:04 27° W 03:58:04 27° W
Cosmos 2237 Rocket 4.2 10:02:03 23° E 10:02:03 23° E 10:05:55 10° NE
ATLAS 2AS CENTAUR R/B 3.5 10:04:23 57° E 10:04:23 57° E 10:11:17 10° NE
Milstar 3 Cent rocket 4.4 10:21:45 18° SE 10:21:45 18° SE 10:24:08 10° ESE
USA 267 4.2 10:37:45 10° NNE 10:42:21 34° N 10:42:21 34° N
H-2A R/B 4.2 10:45:31 10° NNE 10:48:12 32° ENE 10:48:12 32° ENE
SL-16 R/B 4.4 10:50:35 10° SSE 10:54:58 23° E 10:59:20 10° NE
Milstar 3 4.2 10:54:27 23° S 10:56:30 26° SSE 11:02:00 10° ESE
Cosmos 614 Rocket 4.2 10:56:32 64° ESE 10:56:41 65° ESE 11:01:51 10° NNE
PAYLOAD A 4.5 11:02:16 10° NNE 11:07:06 56° ESE 11:12:04 10° S
Cosmos 2278 Rocket 2.9 11:04:40 10° NNW 11:10:13 53° ENE 11:15:44 10° SE
Cosmos 2333 Rocket 3.8 11:14:13 21° NNW 11:14:13 21° NNW 11:16:37 10° N
USA 234 3.8 11:07:45 10° ESE 11:14:04 55° NE 11:19:01 17° NNW
NOSS 3-4 (A) 3.2 11:13:36 65° W 11:14:05 68° WNW 11:20:18 10° NNE
NOSS 3-4 (C) 3.2 11:13:38 65° W 11:14:10 68° WNW 11:20:24 10° NNE
CZ-4B R/B 4.1 11:15:32 10° NNE 11:19:13 38° E 11:22:43 10° SSE
Cosmos 1953 3.9 11:19:15 10° NNE 11:22:56 35° E 11:26:36 10° SE
IDEFIX/ARIANE 42P 3.2 11:18:35 10° N 11:22:14 38° NNW 11:22:14 38° NNW
COSMOS 2441 4.2 11:20:11 10° N 11:25:06 80° WNW 11:27:17 33° SSW
Cosmos 921 Rocket 2.8 11:25:53 83° SSW 11:25:53 83° SSW 11:29:58 10° SSE
Meteor 1-21 4.3 11:28:54 48° WNW 11:28:54 48° WNW 11:34:09 10° N
Cosmos 1023 Rocket 4.4 11:25:40 24° SSW 11:28:49 90° ESE 11:34:00 10° NNE
Cosmos 2184 Rocket 3.8 11:23:27 10° S 11:29:38 77° W 11:35:55 10° N
Cosmos 1758 3.2 11:27:50 10° N 11:31:52 89° ESE 11:35:54 10° S
Cosmos 2219 Rocket 3.9 11:37:05 16° NNW 11:37:05 16° NNW 11:39:04 10° NNW
ATLAS 3B R/B 3.3 11:28:40 10° NNW 11:35:16 54° NE 11:42:01 10° SE
Cosmos 1707 2.6 11:39:15 58° SW 11:39:49 68° W 11:43:44 10° N
NOSS 0 Rocket 4.4 11:39:56 36° W 11:40:52 38° WNW 11:46:37 10° N
Meteor 1-31 Rocket 2.7 11:37:37 10° NNE 11:41:26 84° ESE 11:45:12 10° S
Cosmos 676 Rocket 3.9 11:38:17 10° SSW 11:43:36 87° WNW 11:48:53 10° NNE
Nadezhda 3 Rocket 4.5 11:38:44 10° N 11:45:03 64° E 11:51:18 10° SSE
BREEZE-M DEB (TANK) 3.5 11:41:16 27° WSW 11:45:15 76° NW 11:48:38 10° NE
Cosmos 2237 Rocket 2.6 11:43:57 36° W 11:45:17 41° WNW 11:50:40 10° N
CENTAUR R/B 3.4 11:38:27 10° NNW 11:46:44 76° ENE 11:55:28 10° SE
RESURS DK-1 2.3 11:44:23 15° SSW 11:47:46 83° ESE 11:51:55 10° NNE
Cosmos 292 Rocket 3.7 11:44:03 15° NNW 11:47:51 58° WSW 11:52:34 10° S
Cosmos 44 3.0 11:44:37 17° NNW 11:47:54 77° ENE 11:52:12 10° SSE
Cosmos 1470 2.7 11:45:19 17° NNW 11:48:08 55° W 11:51:55 10° S
Meteor 1-4 Rocket 2.3 11:48:47 25° SSW 11:50:40 67° W 11:54:08 10° N
CZ-2C R/B 2.4 11:46:04 10° N 11:51:12 64° WNW 11:56:15 10° SSW
Cosmos 1726 4.3 11:49:55 10° NNE 11:53:05 27° ENE 11:56:15 10° SE
Cosmos 1190 Rocket 4.4 11:51:32 29° WSW 11:53:29 40° WNW 11:58:28 10° N
Cosmos 407 Rocket 4.1 11:53:12 31° W 11:54:06 34° WNW 11:58:45 10° N
